Time,TemperatureF,DewpointF,PressureIn,WindDirection,WindDirectionDegrees,WindSpeedMPH,WindSpeedGustMPH,Humidity,HourlyPrecipIn,Conditions,Clouds,dailyrainin,SoftwareType,DateUTC
2013-09-25 00:01:00,55.0,28.6,31.03,NW,307,0.0,3.0,36,0.00,,,0.00,meteohub,2013-09-25 04:01:00,
2013-09-25 00:02:00,55.0,28.6,31.03,NW,307,2.0,3.0,36,0.00,,,0.00,meteohub,2013-09-25 04:02:00,
2013-09-25 00:05:00,55.2,28.8,31.03,NW,307,2.0,3.0,36,0.00,,,0.00,meteohub,2013-09-25 04:05:00,
2013-09-25 00:08:00,55.0,28.6,31.03,NW,307,0.0,3.0,36,0.00,,,0.00,meteohub,2013-09-25 04:08:00,
2013-09-25 00:13:00,54.9,28.4,31.03,NW,307,3.0,3.0,36,0.00,,,0.00,meteohub,2013-09-25 04:13:00,
2013-09-25 00:18:00,54.5,28.0,31.03,NW,308,2.0,3.0,36,0.00,,,0.00,meteohub,2013-09-25 04:18:00,
2013-09-25 00:23:00,54.5,28.0,31.03,NW,307,0.0,3.0,36,0.00,,,0.00,meteohub,2013-09-25 04:23:00,
2013-09-25 00:28:00,54.3,27.9,31.03,NW,307,0.0,3.0,36,0.00,,,0.00,meteohub,2013-09-25 04:28:00,
2013-09-25 00:34:00,54.1,27.7,31.03,NW,308,0.0,3.0,36,0.00,,,0.00,meteohub,2013-09-25 04:34:00,
2013-09-25 00:39:00,54.1,27.7,31.03,NW,308,0.0,3.0,36,0.00,,,0.00,meteohub,2013-09-25 04:39:00,
2013-09-25 00:44:00,54.1,28.4,31.03,NW,308,0.0,0.0,37,0.00,,,0.00,meteohub,2013-09-25 04:44:00,
2013-09-25 00:49:00,54.0,28.2,31.03,NW,307,0.0,0.0,37,0.00,,,0.00,meteohub,2013-09-25 04:49:00,
2013-09-25 00:55:00,54.0,28.2,31.03,NW,308,0.0,0.0,37,0.00,,,0.00,meteohub,2013-09-25 04:55:00,
2013-09-25 01:00:00,53.8,28.0,31.03,NW,308,0.0,0.0,37,0.00,,,0.00,meteohub,2013-09-25 05:00:00,
2013-09-25 01:05:00,53.8,28.0,31.03,NW,307,0.0,0.0,37,0.00,,,0.00,meteohub,2013-09-25 05:05:00,
2013-09-25 01:10:00,53.4,27.9,31.03,West,277,4.0,0.0,37,0.00,,,0.00,meteohub,2013-09-25 05:10:00,
2013-09-25 01:16:00,53.2,27.7,31.03,West,277,3.0,4.0,37,0.00,,,0.00,meteohub,2013-09-25 05:16:00,
2013-09-25 01:21:00,53.1,28.0,31.03,West,276,3.0,4.0,38,0.00,,,0.00,meteohub,2013-09-25 05:21:00,
2013-09-25 01:26:00,53.1,28.0,31.03,West,276,3.0,4.0,38,0.00,,,0.00,meteohub,2013-09-25 05:26:00,
2013-09-25 01:32:00,52.7,27.9,31.03,West,275,3.0,4.0,38,0.00,,,0.00,meteohub,2013-09-25 05:32:00,
2013-09-25 01:37:00,52.5,27.7,31.03,West,275,4.0,4.0,38,0.00,,,0.00,meteohub,2013-09-25 05:37:00,
2013-09-25 01:42:00,52.3,27.5,31.03,West,269,3.0,4.0,38,0.00,,,0.00,meteohub,2013-09-25 05:42:00,
2013-09-25 01:47:00,52.2,27.3,31.03,West,269,0.0,4.0,38,0.00,,,0.00,meteohub,2013-09-25 05:47:00,
2013-09-25 01:52:00,52.2,27.9,31.03,West,268,4.0,4.0,39,0.00,,,0.00,meteohub,2013-09-25 05:52:00,
2013-09-25 01:57:00,52.5,28.9,31.03,SSW,211,3.0,4.0,40,0.00,,,0.00,meteohub,2013-09-25 05:57:00,
2013-09-25 02:02:00,52.9,29.3,31.03,SSW,211,3.0,4.0,40,0.00,,,0.00,meteohub,2013-09-25 06:02:00,
2013-09-25 02:07:00,52.9,29.8,31.03,SSW,211,4.0,4.0,41,0.00,,,0.00,meteohub,2013-09-25 06:07:00,
2013-09-25 02:12:00,52.9,31.6,31.03,SW,218,3.0,4.0,44,0.00,,,0.00,meteohub,2013-09-25 06:12:00,
2013-09-25 02:17:00,52.9,31.6,31.03,SW,218,3.0,4.0,44,0.00,,,0.00,meteohub,2013-09-25 06:17:00,
2013-09-25 02:22:00,52.7,31.5,31.03,SW,218,2.0,4.0,44,0.00,,,0.00,meteohub,2013-09-25 06:22:00,
2013-09-25 02:27:00,52.7,31.5,31.03,SW,218,2.0,4.0,44,0.00,,,0.00,meteohub,2013-09-25 06:27:00,
2013-09-25 02:32:00,52.7,31.5,31.03,SSW,209,3.0,4.0,44,0.00,,,0.00,meteohub,2013-09-25 06:32:00,
2013-09-25 02:37:00,52.5,32.4,31.03,SSW,209,3.0,4.0,46,0.00,,,0.00,meteohub,2013-09-25 06:37:00,
2013-09-25 02:42:00,52.5,31.8,31.03,SW,217,3.0,4.0,45,0.00,,,0.00,meteohub,2013-09-25 06:42:00,
2013-09-25 02:47:00,52.2,30.9,31.03,SW,218,3.0,4.0,44,0.00,,,0.00,meteohub,2013-09-25 06:47:00,
2013-09-25 02:52:00,52.2,32.0,31.03,SSW,210,5.0,5.0,46,0.00,,,0.00,meteohub,2013-09-25 06:52:00,
2013-09-25 02:57:00,52.3,33.8,31.03,SW,222,4.0,6.0,49,0.00,,,0.00,meteohub,2013-09-25 06:57:00,
2013-09-25 03:02:00,52.5,33.4,31.03,SW,231,4.0,6.0,48,0.00,,,0.00,meteohub,2013-09-25 07:02:00,
2013-09-25 03:07:00,52.5,33.4,31.03,SW,216,5.0,6.0,48,0.00,,,0.00,meteohub,2013-09-25 07:07:00,
2013-09-25 03:12:00,52.7,34.2,31.03,SSW,212,4.0,6.0,49,0.00,,,0.00,meteohub,2013-09-25 07:12:00,
2013-09-25 03:17:00,52.7,33.6,31.03,SW,216,5.0,6.0,48,0.00,,,0.00,meteohub,2013-09-25 07:17:00,
2013-09-25 03:22:00,52.5,34.0,31.03,SW,217,5.0,6.0,49,0.00,,,0.00,meteohub,2013-09-25 07:22:00,
2013-09-25 03:27:00,52.5,34.0,31.03,SW,219,4.0,6.0,49,0.00,,,0.00,meteohub,2013-09-25 07:27:00,
2013-09-25 03:32:00,52.3,33.3,31.03,SSW,207,4.0,6.0,48,0.00,,,0.00,meteohub,2013-09-25 07:32:00,
2013-09-25 03:37:00,52.5,33.4,31.03,SSW,200,3.0,6.0,48,0.00,,,0.00,meteohub,2013-09-25 07:37:00,
2013-09-25 03:42:00,52.5,33.4,31.03,SW,221,3.0,6.0,48,0.00,,,0.00,meteohub,2013-09-25 07:42:00,
2013-09-25 03:47:00,52.7,33.6,31.03,SSW,204,3.0,6.0,48,0.00,,,0.00,meteohub,2013-09-25 07:47:00,
2013-09-25 03:52:00,52.5,32.9,31.03,SW,214,4.0,6.0,47,0.00,,,0.00,meteohub,2013-09-25 07:52:00,
2013-09-25 03:58:00,52.5,32.9,31.03,SSW,209,5.0,5.0,47,0.00,,,0.00,meteohub,2013-09-25 07:58:00,
2013-09-25 04:03:00,52.3,32.7,31.03,SSW,209,4.0,5.0,47,0.00,,,0.00,meteohub,2013-09-25 08:03:00,
2013-09-25 04:08:00,52.2,32.5,31.03,SSW,213,5.0,6.0,47,0.00,,,0.00,meteohub,2013-09-25 08:08:00,
2013-09-25 04:13:00,52.2,32.5,31.03,SSW,205,6.0,6.0,47,0.00,,,0.00,meteohub,2013-09-25 08:13:00,
2013-09-25 04:19:00,52.2,32.0,31.03,SSW,208,6.0,6.0,46,0.00,,,0.00,meteohub,2013-09-25 08:19:00,
2013-09-25 04:24:00,52.3,32.2,31.03,SSW,209,8.0,8.0,46,0.00,,,0.00,meteohub,2013-09-25 08:24:00,
2013-09-25 04:29:00,52.5,32.9,31.03,SSW,200,5.0,8.0,47,0.00,,,0.00,meteohub,2013-09-25 08:29:00,
2013-09-25 04:35:00,52.5,32.4,31.03,SSW,212,6.0,8.0,46,0.00,,,0.00,meteohub,2013-09-25 08:35:00,
2013-09-25 04:40:00,52.3,32.2,31.03,SW,214,6.0,8.0,46,0.00,,,0.00,meteohub,2013-09-25 08:40:00,
2013-09-25 04:45:00,52.2,32.0,31.03,SSW,210,6.0,8.0,46,0.00,,,0.00,meteohub,2013-09-25 08:45:00,
2013-09-25 04:50:00,52.2,32.0,31.03,SSW,206,6.0,8.0,46,0.00,,,0.00,meteohub,2013-09-25 08:50:00,
2013-09-25 04:55:00,52.0,31.8,31.03,SW,217,4.0,8.0,46,0.00,,,0.00,meteohub,2013-09-25 08:55:00,
2013-09-25 05:01:00,51.8,32.2,31.03,SW,217,6.0,8.0,47,0.00,,,0.00,meteohub,2013-09-25 09:01:00,
2013-09-25 05:06:00,51.8,32.2,31.03,SSW,209,6.0,8.0,47,0.00,,,0.00,meteohub,2013-09-25 09:06:00,
2013-09-25 05:11:00,51.8,32.7,31.03,SSW,208,6.0,8.0,48,0.00,,,0.00,meteohub,2013-09-25 09:11:00,
2013-09-25 05:17:00,51.6,33.1,31.03,SW,214,8.0,8.0,49,0.00,,,0.00,meteohub,2013-09-25 09:17:00,
2013-09-25 05:22:00,51.4,32.4,31.03,SW,215,6.0,8.0,48,0.00,,,0.00,meteohub,2013-09-25 09:22:00,
2013-09-25 05:27:00,51.6,33.1,31.03,SSW,211,5.0,8.0,49,0.00,,,0.00,meteohub,2013-09-25 09:27:00,
2013-09-25 05:32:00,51.4,32.9,31.03,SW,221,4.0,8.0,49,0.00,,,0.00,meteohub,2013-09-25 09:32:00,
2013-09-25 05:37:00,51.6,33.1,31.03,SSW,202,6.0,6.0,49,0.00,,,0.00,meteohub,2013-09-25 09:37:00,
2013-09-25 05:43:00,51.4,33.4,31.03,SW,217,6.0,6.0,50,0.00,,,0.00,meteohub,2013-09-25 09:43:00,
2013-09-25 05:48:00,51.4,33.4,31.03,SSW,202,5.0,6.0,50,0.00,,,0.00,meteohub,2013-09-25 09:48:00,
2013-09-25 05:53:00,51.4,32.9,31.03,SW,230,4.0,6.0,49,0.00,,,0.00,meteohub,2013-09-25 09:53:00,
2013-09-25 05:59:00,51.4,32.4,31.03,SW,224,4.0,6.0,48,0.00,,,0.00,meteohub,2013-09-25 09:59:00,
2013-09-25 06:04:00,51.4,32.4,31.03,SW,228,4.0,6.0,48,0.00,,,0.00,meteohub,2013-09-25 10:04:00,
2013-09-25 06:10:00,51.4,32.4,31.03,SW,234,6.0,6.0,48,0.00,,,0.00,meteohub,2013-09-25 10:10:00,
2013-09-25 06:15:00,51.4,31.8,31.03,SW,219,3.0,6.0,47,0.00,,,0.00,meteohub,2013-09-25 10:15:00,
2013-09-25 06:20:00,51.4,32.4,31.03,SW,222,4.0,6.0,48,0.00,,,0.00,meteohub,2013-09-25 10:20:00,
2013-09-25 06:26:00,51.4,32.9,31.03,SSW,206,5.0,6.0,49,0.00,,,0.00,meteohub,2013-09-25 10:26:00,
2013-09-25 06:31:00,51.4,32.4,31.03,SSW,205,4.0,6.0,48,0.00,,,0.00,meteohub,2013-09-25 10:31:00,
2013-09-25 06:36:00,51.3,32.2,31.03,SSW,205,4.0,6.0,48,0.00,,,0.00,meteohub,2013-09-25 10:36:00,
2013-09-25 06:41:00,51.3,32.2,31.03,SSW,209,4.0,6.0,48,0.00,,,0.00,meteohub,2013-09-25 10:41:00,
2013-09-25 06:47:00,51.3,31.6,31.03,SSW,213,4.0,6.0,47,0.00,,,0.00,meteohub,2013-09-25 10:47:00,
2013-09-25 06:52:00,51.3,31.1,31.03,SSW,195,5.0,6.0,46,0.00,,,0.00,meteohub,2013-09-25 10:52:00,
2013-09-25 06:57:00,51.3,31.1,31.03,SSW,203,4.0,6.0,46,0.00,,,0.00,meteohub,2013-09-25 10:57:00,
2013-09-25 07:02:00,51.3,31.1,31.03,SSW,201,4.0,6.0,46,0.00,,,0.00,meteohub,2013-09-25 11:02:00,
2013-09-25 07:07:00,51.3,31.1,31.03,SSW,210,4.0,6.0,46,0.00,,,0.00,meteohub,2013-09-25 11:07:00,
2013-09-25 07:12:00,51.3,31.1,31.03,SSW,200,3.0,6.0,46,0.00,,,0.00,meteohub,2013-09-25 11:12:00,
2013-09-25 07:17:00,51.4,31.3,31.03,SW,216,3.0,6.0,46,0.00,,,0.00,meteohub,2013-09-25 11:17:00,
2013-09-25 07:23:00,51.6,30.9,31.03,SW,222,2.0,6.0,45,0.00,,,0.00,meteohub,2013-09-25 11:23:00,
2013-09-25 07:28:00,51.6,30.4,31.03,SW,225,5.0,6.0,44,0.00,,,0.00,meteohub,2013-09-25 11:28:00,
2013-09-25 07:33:00,52.0,30.2,31.03,SW,222,3.0,6.0,43,0.00,,,0.00,meteohub,2013-09-25 11:33:00,
2013-09-25 07:39:00,52.2,30.4,31.03,SW,221,4.0,6.0,43,0.00,,,0.00,meteohub,2013-09-25 11:39:00,
2013-09-25 07:44:00,52.5,31.3,31.03,WSW,239,3.0,6.0,44,0.00,,,0.00,meteohub,2013-09-25 11:44:00,
2013-09-25 07:49:00,53.1,31.6,31.03,WSW,245,3.0,6.0,44,0.00,,,0.00,meteohub,2013-09-25 11:49:00,
2013-09-25 07:54:00,53.2,31.8,31.03,WSW,241,4.0,7.0,44,0.00,,,0.00,meteohub,2013-09-25 11:54:00,
2013-09-25 08:00:00,53.8,32.4,31.03,SW,229,5.0,7.0,44,0.00,,,0.00,meteohub,2013-09-25 12:00:00,
2013-09-25 08:05:00,54.1,32.2,31.03,WSW,238,0.0,7.0,43,0.00,,,0.00,meteohub,2013-09-25 12:05:00,
2013-09-25 08:10:00,54.3,32.9,31.03,WSW,241,0.0,8.0,44,0.00,,,0.00,meteohub,2013-09-25 12:10:00,
2013-09-25 08:16:00,54.5,32.5,31.03,WSW,255,4.0,8.0,43,0.00,,,0.00,meteohub,2013-09-25 12:16:00,
2013-09-25 08:21:00,54.9,33.4,31.03,WSW,248,5.0,8.0,44,0.00,,,0.00,meteohub,2013-09-25 12:21:00,
2013-09-25 08:26:00,55.4,33.3,31.03,SSW,199,5.0,6.0,43,0.00,,,0.00,meteohub,2013-09-25 12:26:00,
2013-09-25 08:27:00,55.4,33.3,31.03,SSW,193,5.0,6.0,43,0.00,,,0.00,meteohub,2013-09-25 12:27:00,
2013-09-25 08:32:00,55.9,33.8,31.03,SSW,198,6.0,6.0,43,0.00,,,0.00,meteohub,2013-09-25 12:32:00,
2013-09-25 08:37:00,56.5,33.6,31.03,SSW,192,6.0,8.0,42,0.00,,,0.00,meteohub,2013-09-25 12:37:00,
2013-09-25 08:43:00,56.7,33.8,31.03,SSW,192,6.0,8.0,42,0.00,,,0.00,meteohub,2013-09-25 12:43:00,
2013-09-25 08:48:00,56.8,33.4,31.03,SW,216,4.0,8.0,41,0.00,,,0.00,meteohub,2013-09-25 12:48:00,
2013-09-25 08:53:00,57.2,33.6,31.03,SSW,209,6.0,8.0,41,0.00,,,0.00,meteohub,2013-09-25 12:53:00,
2013-09-25 08:58:00,57.4,32.5,31.03,SW,225,5.0,8.0,39,0.00,,,0.00,meteohub,2013-09-25 12:58:00,
2013-09-25 09:04:00,57.7,32.9,31.03,SW,226,5.0,8.0,39,0.00,,,0.00,meteohub,2013-09-25 13:04:00,
2013-09-25 09:09:00,57.7,31.6,31.03,NW,318,5.0,8.0,37,0.00,,,0.00,meteohub,2013-09-25 13:09:00,
2013-09-25 09:14:00,58.6,31.8,31.03,WSW,247,10.0,10.0,36,0.00,,,0.00,meteohub,2013-09-25 13:14:00,
2013-09-25 09:19:00,58.8,30.6,31.03,West,275,6.0,8.0,34,0.00,,,0.00,meteohub,2013-09-25 13:19:00,
2013-09-25 09:25:00,59.0,30.7,31.03,WSW,250,5.0,10.0,34,0.00,,,0.00,meteohub,2013-09-25 13:25:00,
2013-09-25 09:30:00,59.2,30.7,31.03,WSW,246,4.0,10.0,34,0.00,,,0.00,meteohub,2013-09-25 13:30:00,
2013-09-25 09:35:00,59.4,30.9,31.03,WNW,295,4.0,10.0,34,0.00,,,0.00,meteohub,2013-09-25 13:35:00,
2013-09-25 09:41:00,59.9,28.4,31.03,WNW,284,5.0,8.0,30,0.00,,,0.00,meteohub,2013-09-25 13:41:00,
2013-09-25 09:46:00,60.8,30.0,31.03,WNW,301,5.0,8.0,31,0.00,,,0.00,meteohub,2013-09-25 13:46:00,
2013-09-25 09:51:00,60.6,25.5,31.03,SW,231,8.0,8.0,26,0.00,,,0.00,meteohub,2013-09-25 13:51:00,
2013-09-25 09:56:00,61.0,28.6,31.03,SW,218,5.0,11.0,29,0.00,,,0.00,meteohub,2013-09-25 13:56:00,
2013-09-25 10:02:00,61.9,29.3,31.03,WNW,287,4.0,11.0,29,0.00,,,0.00,meteohub,2013-09-25 14:02:00,
2013-09-25 10:07:00,61.7,27.3,31.03,SW,217,5.0,11.0,27,0.00,,,0.00,meteohub,2013-09-25 14:07:00,
2013-09-25 10:12:00,60.8,29.1,31.03,WSW,256,6.0,11.0,30,0.00,,,0.00,meteohub,2013-09-25 14:12:00,
2013-09-25 10:18:00,61.3,29.7,31.03,West,260,5.0,11.0,30,0.00,,,0.00,meteohub,2013-09-25 14:18:00,
2013-09-25 10:23:00,61.7,29.1,31.03,NW,318,6.0,11.0,29,0.00,,,0.00,meteohub,2013-09-25 14:23:00,
2013-09-25 10:28:00,62.4,29.7,31.03,West,271,8.0,11.0,29,0.00,,,0.00,meteohub,2013-09-25 14:28:00,
2013-09-25 10:34:00,62.8,27.3,31.03,WNW,290,5.0,11.0,26,0.00,,,0.00,meteohub,2013-09-25 14:34:00,
2013-09-25 10:39:00,63.5,28.0,31.03,WNW,299,5.0,10.0,26,0.00,,,0.00,meteohub,2013-09-25 14:39:00,
2013-09-25 10:44:00,63.5,26.1,31.03,WNW,282,4.0,10.0,24,0.00,,,0.00,meteohub,2013-09-25 14:44:00,
2013-09-25 10:50:00,64.2,27.7,31.03,WNW,291,6.0,10.0,25,0.00,,,0.00,meteohub,2013-09-25 14:50:00,
2013-09-25 10:55:00,65.1,27.5,31.03,West,272,8.0,11.0,24,0.00,,,0.00,meteohub,2013-09-25 14:55:00,
2013-09-25 11:00:00,64.9,26.2,31.03,West,271,6.0,11.0,23,0.00,,,0.00,meteohub,2013-09-25 15:00:00,
2013-09-25 11:06:00,64.8,27.1,31.03,West,278,8.0,11.0,24,0.00,,,0.00,meteohub,2013-09-25 15:06:00,
2013-09-25 11:11:00,64.4,25.7,31.03,West,276,4.0,12.0,23,0.00,,,0.00,meteohub,2013-09-25 15:11:00,
2013-09-25 11:16:00,64.2,26.6,31.03,NW,308,8.0,12.0,24,0.00,,,0.00,meteohub,2013-09-25 15:16:00,
2013-09-25 11:22:00,64.0,26.6,31.03,NW,311,6.0,11.0,24,0.00,,,0.00,meteohub,2013-09-25 15:22:00,
2013-09-25 11:27:00,63.5,26.1,31.03,SW,232,8.0,11.0,24,0.00,,,0.00,meteohub,2013-09-25 15:27:00,
2013-09-25 11:32:00,64.4,26.8,31.03,NNW,334,4.0,11.0,24,0.00,,,0.00,meteohub,2013-09-25 15:32:00,
2013-09-25 11:37:00,65.7,26.8,31.03,West,270,11.0,11.0,23,0.00,,,0.00,meteohub,2013-09-25 15:37:00,
2013-09-25 11:42:00,64.8,27.1,31.03,SW,227,4.0,11.0,24,0.00,,,0.00,meteohub,2013-09-25 15:42:00,
2013-09-25 11:47:00,66.2,23.9,31.03,NW,317,8.0,11.0,20,0.00,,,0.00,meteohub,2013-09-25 15:47:00,
2013-09-25 11:53:00,67.1,18.0,31.03,WSW,250,6.0,12.0,15,0.00,,,0.00,meteohub,2013-09-25 15:53:00,
2013-09-25 11:58:00,66.0,17.1,31.03,NW,316,6.0,12.0,15,0.00,,,0.00,meteohub,2013-09-25 15:58:00,
2013-09-25 12:03:00,66.7,17.6,31.03,WNW,286,7.0,12.0,15,0.00,,,0.00,meteohub,2013-09-25 16:03:00,
2013-09-25 12:09:00,67.6,13.3,31.03,West,269,6.0,11.0,12,0.00,,,0.00,meteohub,2013-09-25 16:09:00,
2013-09-25 12:14:00,67.6,13.3,31.03,NW,304,4.0,11.0,12,0.00,,,0.00,meteohub,2013-09-25 16:14:00,
2013-09-25 12:19:00,68.0,9.3,31.03,West,281,8.0,11.0,10,0.00,,,0.00,meteohub,2013-09-25 16:19:00,
2013-09-25 12:25:00,68.4,9.7,31.03,NW,315,6.0,11.0,10,0.00,,,0.00,meteohub,2013-09-25 16:25:00,
2013-09-25 12:30:00,67.8,1.4,31.03,WSW,256,8.0,11.0,7,0.00,,,0.00,meteohub,2013-09-25 16:30:00,
2013-09-25 12:35:00,67.6,9.1,31.03,WNW,295,3.0,11.0,10,0.00,,,0.00,meteohub,2013-09-25 16:35:00,
2013-09-25 12:41:00,67.8,9.3,31.03,West,273,6.0,11.0,10,0.00,,,0.00,meteohub,2013-09-25 16:41:00,
2013-09-25 12:46:00,68.2,1.8,31.03,NW,310,4.0,9.0,7,0.00,,,0.00,meteohub,2013-09-25 16:46:00,
2013-09-25 12:51:00,67.8,1.4,31.03,SSW,211,3.0,9.0,7,0.00,,,0.00,meteohub,2013-09-25 16:51:00,
2013-09-25 12:56:00,67.5,1.2,31.03,SSE,148,2.0,9.0,7,0.00,,,0.00,meteohub,2013-09-25 16:56:00,
2013-09-25 13:02:00,68.4,1.8,31.03,SW,221,3.0,9.0,7,0.00,,,0.00,meteohub,2013-09-25 17:02:00,
2013-09-25 13:07:00,69.1,2.3,31.03,SSE,156,6.0,9.0,7,0.00,,,0.00,meteohub,2013-09-25 17:07:00,
2013-09-25 13:12:00,68.4,1.8,31.03,West,259,7.0,9.0,7,0.00,,,0.00,meteohub,2013-09-25 17:12:00,
2013-09-25 13:18:00,68.0,1.6,31.03,WNW,283,6.0,9.0,7,0.00,,,0.00,meteohub,2013-09-25 17:18:00,
2013-09-25 13:23:00,68.5,1.9,31.03,SE,135,2.0,9.0,7,0.00,,,0.00,meteohub,2013-09-25 17:23:00,
2013-09-25 13:28:00,68.4,1.8,31.03,West,281,5.0,11.0,7,0.00,,,0.00,meteohub,2013-09-25 17:28:00,
2013-09-25 13:33:00,68.2,1.8,31.03,West,274,5.0,11.0,7,0.00,,,0.00,meteohub,2013-09-25 17:33:00,
2013-09-25 13:39:00,68.4,1.8,31.03,WNW,295,6.0,9.0,7,0.00,,,0.00,meteohub,2013-09-25 17:39:00,
2013-09-25 13:44:00,69.1,-4.7,31.03,West,277,2.0,9.0,5,0.00,,,0.00,meteohub,2013-09-25 17:44:00,
2013-09-25 13:49:00,69.6,-4.4,31.03,WNW,284,5.0,9.0,5,0.00,,,0.00,meteohub,2013-09-25 17:49:00,
2013-09-25 13:54:00,70.0,-8.7,31.03,West,272,8.0,9.0,4,0.00,,,0.00,meteohub,2013-09-25 17:54:00,
2013-09-25 14:00:00,70.0,-8.7,31.03,WNW,283,6.0,10.0,4,0.00,,,0.00,meteohub,2013-09-25 18:00:00,
2013-09-25 14:05:00,70.0,-8.7,31.03,WSW,243,8.0,10.0,4,0.00,,,0.00,meteohub,2013-09-25 18:05:00,
2013-09-25 14:10:00,68.9,-4.9,31.03,West,269,9.0,11.0,5,0.00,,,0.00,meteohub,2013-09-25 18:10:00,
2013-09-25 14:15:00,68.4,-5.3,31.03,SW,226,6.0,11.0,5,0.00,,,0.00,meteohub,2013-09-25 18:15:00,
2013-09-25 14:20:00,68.2,-5.4,31.03,NW,306,8.0,11.0,5,0.00,,,0.00,meteohub,2013-09-25 18:20:00,
2013-09-25 14:26:00,68.5,-5.1,31.03,WNW,301,11.0,11.0,5,0.00,,,0.00,meteohub,2013-09-25 18:26:00,
2013-09-25 14:31:00,68.7,-5.1,31.03,WSW,254,8.0,11.0,5,0.00,,,0.00,meteohub,2013-09-25 18:31:00,
2013-09-25 14:36:00,68.7,-5.1,31.03,WNW,287,8.0,11.0,5,0.00,,,0.00,meteohub,2013-09-25 18:36:00,
2013-09-25 14:41:00,68.7,-5.1,31.03,SW,215,4.0,11.0,5,0.00,,,0.00,meteohub,2013-09-25 18:41:00,
2013-09-25 14:47:00,66.7,0.7,31.03,WNW,288,6.0,10.0,7,0.00,,,0.00,meteohub,2013-09-25 18:47:00,
2013-09-25 14:52:00,67.5,-6.0,31.03,SSW,192,6.0,10.0,5,0.00,,,0.00,meteohub,2013-09-25 18:52:00,
2013-09-25 14:57:00,68.0,-5.4,31.03,WSW,256,4.0,11.0,5,0.00,,,0.00,meteohub,2013-09-25 18:57:00,
2013-09-25 15:02:00,67.8,-5.6,31.03,SW,228,6.0,11.0,5,0.00,,,0.00,meteohub,2013-09-25 19:02:00,
2013-09-25 15:07:00,67.5,-6.0,31.03,WSW,244,8.0,11.0,5,0.00,,,0.00,meteohub,2013-09-25 19:07:00,
2013-09-25 15:12:00,68.0,-5.4,31.03,West,260,8.0,11.0,5,0.00,,,0.00,meteohub,2013-09-25 19:12:00,
2013-09-25 15:17:00,68.0,-5.4,31.03,WNW,303,6.0,10.0,5,0.00,,,0.00,meteohub,2013-09-25 19:17:00,
2013-09-25 15:22:00,68.2,-5.4,31.03,West,279,8.0,10.0,5,0.00,,,0.00,meteohub,2013-09-25 19:22:00,
2013-09-25 15:28:00,68.2,-5.4,31.03,WNW,298,11.0,11.0,5,0.00,,,0.00,meteohub,2013-09-25 19:28:00,
2013-09-25 15:33:00,68.4,-5.3,31.03,NW,312,11.0,11.0,5,0.00,,,0.00,meteohub,2013-09-25 19:33:00,
2013-09-25 15:38:00,68.2,-5.4,31.03,WNW,285,9.0,14.0,5,0.00,,,0.00,meteohub,2013-09-25 19:38:00,
2013-09-25 15:43:00,67.8,-5.6,31.03,WNW,297,13.0,14.0,5,0.00,,,0.00,meteohub,2013-09-25 19:43:00,
2013-09-25 15:49:00,67.5,-6.0,31.03,NNW,328,8.0,13.0,5,0.00,,,0.00,meteohub,2013-09-25 19:49:00,
2013-09-25 15:54:00,67.1,-6.2,31.03,West,270,7.0,13.0,5,0.00,,,0.00,meteohub,2013-09-25 19:54:00,
2013-09-25 15:59:00,67.1,0.9,31.03,WSW,253,8.0,13.0,7,0.00,,,0.00,meteohub,2013-09-25 19:59:00,
2013-09-25 16:04:00,66.6,0.5,31.03,West,279,6.0,13.0,7,0.00,,,0.00,meteohub,2013-09-25 20:04:00,
2013-09-25 16:09:00,66.6,0.5,31.03,NW,304,9.0,13.0,7,0.00,,,0.00,meteohub,2013-09-25 20:09:00,
2013-09-25 16:15:00,66.4,0.3,31.03,West,265,6.0,15.0,7,0.00,,,0.00,meteohub,2013-09-25 20:15:00,
2013-09-25 16:20:00,65.8,2.8,31.03,West,267,8.0,15.0,8,0.00,,,0.00,meteohub,2013-09-25 20:20:00,
2013-09-25 16:25:00,65.3,2.5,31.03,NW,317,7.0,15.0,8,0.00,,,0.00,meteohub,2013-09-25 20:25:00,
2013-09-25 16:30:00,65.3,2.5,31.03,West,269,8.0,13.0,8,0.00,,,0.00,meteohub,2013-09-25 20:30:00,
2013-09-25 16:36:00,65.7,-7.2,31.03,WNW,289,11.0,13.0,5,0.00,,,0.00,meteohub,2013-09-25 20:36:00,
2013-09-25 16:41:00,65.8,-7.1,31.03,West,273,6.0,10.0,5,0.00,,,0.00,meteohub,2013-09-25 20:41:00,
2013-09-25 16:46:00,65.7,-7.2,31.03,WNW,300,6.0,12.0,5,0.00,,,0.00,meteohub,2013-09-25 20:46:00,
2013-09-25 16:51:00,64.6,1.9,31.03,NW,304,4.0,12.0,8,0.00,,,0.00,meteohub,2013-09-25 20:51:00,
2013-09-25 16:57:00,64.0,1.6,31.03,West,281,3.0,11.0,8,0.00,,,0.00,meteohub,2013-09-25 20:57:00,
2013-09-25 17:02:00,63.5,1.0,31.03,West,261,4.0,11.0,8,0.00,,,0.00,meteohub,2013-09-25 21:02:00,
2013-09-25 17:07:00,63.3,1.0,31.03,WNW,293,4.0,11.0,8,0.00,,,0.00,meteohub,2013-09-25 21:07:00,
2013-09-25 17:12:00,63.1,0.9,31.03,West,279,3.0,9.0,8,0.00,,,0.00,meteohub,2013-09-25 21:12:00,
2013-09-25 17:18:00,63.0,0.7,31.03,WNW,300,3.0,8.0,8,0.00,,,0.00,meteohub,2013-09-25 21:18:00,
2013-09-25 17:23:00,62.6,7.3,31.03,WNW,291,5.0,8.0,11,0.00,,,0.00,meteohub,2013-09-25 21:23:00,
2013-09-25 17:28:00,62.6,7.3,31.03,WNW,294,6.0,9.0,11,0.00,,,0.00,meteohub,2013-09-25 21:28:00,
2013-09-25 17:33:00,62.2,7.0,31.03,NW,312,4.0,9.0,11,0.00,,,0.00,meteohub,2013-09-25 21:33:00,
2013-09-25 17:39:00,61.9,6.8,31.03,NNW,338,5.0,9.0,11,0.00,,,0.00,meteohub,2013-09-25 21:39:00,
2013-09-25 17:44:00,61.3,6.3,31.03,NW,313,5.0,9.0,11,0.00,,,0.00,meteohub,2013-09-25 21:44:00,
2013-09-25 17:49:00,61.0,6.1,31.03,NW,318,5.0,9.0,11,0.00,,,0.00,meteohub,2013-09-25 21:49:00,
2013-09-25 17:54:00,60.8,5.9,31.03,NW,321,4.0,9.0,11,0.00,,,0.00,meteohub,2013-09-25 21:54:00,
2013-09-25 18:00:00,60.4,7.5,31.03,NW,321,2.0,9.0,12,0.00,,,0.00,meteohub,2013-09-25 22:00:00,
2013-09-25 18:05:00,60.4,10.9,31.03,NW,321,4.0,9.0,14,0.00,,,0.00,meteohub,2013-09-25 22:05:00,
2013-09-25 18:10:00,60.4,10.9,31.03,NW,326,5.0,6.0,14,0.00,,,0.00,meteohub,2013-09-25 22:10:00,
2013-09-25 18:15:00,60.4,10.9,31.03,NW,320,4.0,6.0,14,0.00,,,0.00,meteohub,2013-09-25 22:15:00,
2013-09-25 18:21:00,60.3,10.9,31.03,NW,308,3.0,6.0,14,0.00,,,0.00,meteohub,2013-09-25 22:21:00,
2013-09-25 18:26:00,60.3,15.3,31.03,NNW,338,4.0,6.0,17,0.00,,,0.00,meteohub,2013-09-25 22:26:00,
2013-09-25 18:31:00,60.3,15.3,31.03,North,2,5.0,5.0,17,0.00,,,0.00,meteohub,2013-09-25 22:31:00,
2013-09-25 18:37:00,60.1,15.1,31.03,NNW,329,4.0,5.0,17,0.00,,,0.00,meteohub,2013-09-25 22:37:00,
2013-09-25 18:42:00,59.7,14.9,31.03,NNW,329,0.0,6.0,17,0.00,,,0.00,meteohub,2013-09-25 22:42:00,
2013-09-25 18:47:00,59.7,17.4,31.03,NNW,328,4.0,6.0,19,0.00,,,0.00,meteohub,2013-09-25 22:47:00,
2013-09-25 18:52:00,59.7,17.4,31.03,NNW,328,2.0,6.0,19,0.00,,,0.00,meteohub,2013-09-25 22:52:00,
2013-09-25 18:57:00,59.7,17.4,31.03,NNW,328,3.0,4.0,19,0.00,,,0.00,meteohub,2013-09-25 22:57:00,
2013-09-25 19:02:00,59.5,17.2,31.03,NNW,328,3.0,4.0,19,0.00,,,0.00,meteohub,2013-09-25 23:02:00,
2013-09-25 19:07:00,59.4,20.5,31.03,NNW,329,4.0,4.0,22,0.00,,,0.00,meteohub,2013-09-25 23:07:00,
2013-09-25 19:12:00,59.4,22.6,31.03,NNW,329,3.0,4.0,24,0.00,,,0.00,meteohub,2013-09-25 23:12:00,
2013-09-25 19:17:00,59.2,22.5,31.03,NNW,328,4.0,4.0,24,0.00,,,0.00,meteohub,2013-09-25 23:17:00,
2013-09-25 19:22:00,59.2,22.5,31.03,NNW,329,3.0,4.0,24,0.00,,,0.00,meteohub,2013-09-25 23:22:00,
2013-09-25 19:27:00,59.0,22.3,31.03,NNW,329,3.0,5.0,24,0.00,,,0.00,meteohub,2013-09-25 23:27:00,
2013-09-25 19:32:00,59.0,23.2,31.03,NNW,328,3.0,5.0,25,0.00,,,0.00,meteohub,2013-09-25 23:32:00,
2013-09-25 19:37:00,59.0,23.2,31.03,NNW,329,0.0,5.0,25,0.00,,,0.00,meteohub,2013-09-25 23:37:00,
2013-09-25 19:42:00,59.0,23.2,31.03,NNW,328,0.0,4.0,25,0.00,,,0.00,meteohub,2013-09-25 23:42:00,
2013-09-25 19:47:00,58.8,23.0,31.03,NNW,328,0.0,3.0,25,0.00,,,0.00,meteohub,2013-09-25 23:47:00,
2013-09-25 19:53:00,58.8,23.0,31.03,NNW,328,0.0,3.0,25,0.00,,,0.00,meteohub,2013-09-25 23:53:00,
2013-09-25 19:58:00,58.8,24.1,31.03,NNW,328,0.0,0.0,26,0.00,,,0.00,meteohub,2013-09-25 23:58:00,
2013-09-25 20:03:00,58.8,24.1,31.03,NNW,328,0.0,0.0,26,0.00,,,0.00,meteohub,2013-09-26 00:03:00,
2013-09-25 20:08:00,58.8,24.1,31.03,NNW,329,0.0,0.0,26,0.00,,,0.00,meteohub,2013-09-26 00:08:00,
2013-09-25 20:14:00,58.8,24.1,31.03,NNW,328,0.0,0.0,26,0.00,,,0.00,meteohub,2013-09-26 00:14:00,
2013-09-25 20:19:00,58.8,24.1,31.03,NNW,328,0.0,0.0,26,0.00,,,0.00,meteohub,2013-09-26 00:19:00,
2013-09-25 20:24:00,58.6,23.9,31.03,NNW,328,0.0,0.0,26,0.00,,,0.00,meteohub,2013-09-26 00:24:00,
2013-09-25 20:29:00,58.6,23.9,31.03,NNW,329,0.0,0.0,26,0.00,,,0.00,meteohub,2013-09-26 00:29:00,
2013-09-25 20:35:00,58.5,23.7,31.03,NNW,328,0.0,0.0,26,0.00,,,0.00,meteohub,2013-09-26 00:35:00,
2013-09-25 20:40:00,58.5,23.7,31.03,NNW,328,0.0,0.0,26,0.00,,,0.00,meteohub,2013-09-26 00:40:00,
2013-09-25 20:45:00,58.3,24.4,31.03,NNW,328,0.0,0.0,27,0.00,,,0.00,meteohub,2013-09-26 00:45:00,
2013-09-25 20:50:00,58.1,24.3,31.03,NNW,329,0.0,0.0,27,0.00,,,0.00,meteohub,2013-09-26 00:50:00,
2013-09-25 20:56:00,57.9,24.1,31.03,NNW,328,0.0,0.0,27,0.00,,,0.00,meteohub,2013-09-26 00:56:00,
2013-09-25 21:01:00,57.9,24.1,31.03,NNW,328,0.0,0.0,27,0.00,,,0.00,meteohub,2013-09-26 01:01:00,
2013-09-25 21:06:00,57.9,25.0,31.03,NNW,328,0.0,0.0,28,0.00,,,0.00,meteohub,2013-09-26 01:06:00,
2013-09-25 21:12:00,57.9,25.0,31.03,NNW,328,0.0,0.0,28,0.00,,,0.00,meteohub,2013-09-26 01:12:00,
2013-09-25 21:17:00,58.1,26.1,31.03,NNW,328,0.0,0.0,29,0.00,,,0.00,meteohub,2013-09-26 01:17:00,
2013-09-25 21:22:00,58.3,26.2,31.03,NNW,328,0.0,0.0,29,0.00,,,0.00,meteohub,2013-09-26 01:22:00,
2013-09-25 21:27:00,58.5,26.2,31.03,NNW,329,0.0,0.0,29,0.00,,,0.00,meteohub,2013-09-26 01:27:00,
2013-09-25 21:32:00,58.5,27.1,31.03,NNW,328,0.0,0.0,30,0.00,,,0.00,meteohub,2013-09-26 01:32:00,
2013-09-25 21:37:00,58.5,27.1,31.03,NNW,328,0.0,0.0,30,0.00,,,0.00,meteohub,2013-09-26 01:37:00,
2013-09-25 21:42:00,58.1,26.8,31.03,NNW,328,0.0,0.0,30,0.00,,,0.00,meteohub,2013-09-26 01:42:00,
2013-09-25 21:47:00,57.9,26.6,31.03,NNW,329,0.0,0.0,30,0.00,,,0.00,meteohub,2013-09-26 01:47:00,
2013-09-25 21:53:00,57.6,27.1,31.03,NNW,329,2.0,0.0,31,0.00,,,0.00,meteohub,2013-09-26 01:53:00,
2013-09-25 21:58:00,57.6,27.1,31.03,NNW,328,3.0,3.0,31,0.00,,,0.00,meteohub,2013-09-26 01:58:00,
2013-09-25 22:03:00,57.4,27.0,31.03,NNW,329,0.0,3.0,31,0.00,,,0.00,meteohub,2013-09-26 02:03:00,
2013-09-25 22:09:00,57.2,27.7,31.03,NNW,328,0.0,3.0,32,0.00,,,0.00,meteohub,2013-09-26 02:09:00,
2013-09-25 22:14:00,57.2,27.7,31.03,NNW,328,0.0,3.0,32,0.00,,,0.00,meteohub,2013-09-26 02:14:00,
2013-09-25 22:19:00,57.0,28.2,31.03,NNW,328,0.0,3.0,33,0.00,,,0.00,meteohub,2013-09-26 02:19:00,
2013-09-25 22:24:00,56.8,30.2,31.03,NNW,328,4.0,4.0,36,0.00,,,0.00,meteohub,2013-09-26 02:24:00,
2013-09-25 22:30:00,56.7,30.0,31.03,NNW,328,0.0,4.0,36,0.00,,,0.00,meteohub,2013-09-26 02:30:00,
2013-09-25 22:35:00,56.8,30.2,31.03,NNW,329,0.0,4.0,36,0.00,,,0.00,meteohub,2013-09-26 02:35:00,
2013-09-25 22:40:00,57.0,30.4,31.03,NNW,328,0.0,4.0,36,0.00,,,0.00,meteohub,2013-09-26 02:40:00,
2013-09-25 22:46:00,57.0,30.4,31.03,NNW,328,0.0,2.0,36,0.00,,,0.00,meteohub,2013-09-26 02:46:00,
2013-09-25 22:51:00,57.0,30.4,31.03,NNW,328,0.0,2.0,36,0.00,,,0.00,meteohub,2013-09-26 02:51:00,
2013-09-25 22:56:00,57.0,30.4,31.03,NNW,329,0.0,2.0,36,0.00,,,0.00,meteohub,2013-09-26 02:56:00,
2013-09-25 23:02:00,57.2,30.6,31.03,NNW,328,0.0,2.0,36,0.00,,,0.00,meteohub,2013-09-26 03:02:00,
2013-09-25 23:07:00,57.4,30.6,31.03,NNW,329,0.0,2.0,36,0.00,,,0.00,meteohub,2013-09-26 03:07:00,
2013-09-25 23:12:00,57.2,30.6,31.03,NNW,328,0.0,0.0,36,0.00,,,0.00,meteohub,2013-09-26 03:12:00,
2013-09-25 23:17:00,57.2,31.8,31.03,NNW,328,3.0,0.0,38,0.00,,,0.00,meteohub,2013-09-26 03:17:00,
2013-09-25 23:22:00,56.8,30.9,31.03,NNW,328,3.0,0.0,37,0.00,,,0.00,meteohub,2013-09-26 03:22:00,
2013-09-25 23:27:00,56.8,31.5,31.03,NNW,329,3.0,4.0,38,0.00,,,0.00,meteohub,2013-09-26 03:27:00,
2013-09-25 23:32:00,57.0,33.6,31.03,NNW,328,3.0,4.0,41,0.00,,,0.00,meteohub,2013-09-26 03:32:00,
2013-09-25 23:37:00,57.0,32.4,31.03,NNW,328,0.0,4.0,39,0.00,,,0.00,meteohub,2013-09-26 03:37:00,
2013-09-25 23:42:00,57.2,32.5,31.03,NNW,328,0.0,4.0,39,0.00,,,0.00,meteohub,2013-09-26 03:42:00,
2013-09-25 23:47:00,57.2,31.8,31.03,NNW,328,3.0,4.0,38,0.00,,,0.00,meteohub,2013-09-26 03:47:00,
2013-09-25 23:52:00,57.2,31.8,31.03,NNW,328,3.0,4.0,38,0.00,,,0.00,meteohub,2013-09-26 03:52:00,
2013-09-25 23:57:00,57.2,31.8,31.03,NNW,328,2.0,4.0,38,0.00,,,0.00,meteohub,2013-09-26 03:57:00,